Time,TemperatureF,DewpointF,PressureIn,WindDirection,WindDirectionDegrees,WindSpeedMPH,WindSpeedGustMPH,Humidity,HourlyPrecipIn,Conditions,Clouds,dailyrainin,SoftwareType,DateUTC
2013-07-04 00:01:00,76.7,72.5,29.99,SW,226,4.0,7.0,87,0.00,,,0.00,WeatherCatV1.11B39,2013-07-04 04:01:00,
2013-07-04 00:06:00,76.7,72.5,30.00,WSW,257,5.0,6.0,87,0.00,,,0.00,WeatherCatV1.11B39,2013-07-04 04:06:00,
2013-07-04 00:11:00,76.7,72.5,29.99,WSW,255,3.0,7.0,87,0.00,,,0.00,WeatherCatV1.11B39,2013-07-04 04:11:00,
2013-07-04 00:16:00,76.7,72.5,29.99,WSW,242,9.0,10.0,87,0.00,,,0.00,WeatherCatV1.11B39,2013-07-04 04:16:00,
2013-07-04 00:21:00,76.7,72.5,29.99,SW,231,8.0,8.0,87,0.00,,,0.00,WeatherCatV1.11B39,2013-07-04 04:21:00,
2013-07-04 00:26:00,76.7,72.5,29.99,WSW,241,6.0,8.0,87,0.00,,,0.00,WeatherCatV1.11B39,2013-07-04 04:26:00,
2013-07-04 00:31:00,76.8,72.6,29.99,WSW,249,6.0,7.0,87,0.00,,,0.00,WeatherCatV1.11B39,2013-07-04 04:31:00,
2013-07-04 00:36:00,76.7,72.5,29.99,West,273,0.0,7.0,87,0.00,,,0.00,WeatherCatV1.11B39,2013-07-04 04:36:00,
2013-07-04 00:37:00,76.8,72.6,29.99,West,264,2.0,4.0,87,0.00,,,0.00,WeatherCatV1.11B39,2013-07-04 04:37:00,
2013-07-04 00:42:00,76.6,72.4,30.00,WSW,252,5.0,7.0,87,0.00,,,0.00,WeatherCatV1.11B39,2013-07-04 04:42:00,
2013-07-04 00:47:00,76.6,72.4,30.00,WSW,240,0.0,0.0,87,0.00,,,0.00,WeatherCatV1.11B39,2013-07-04 04:47:00,
2013-07-04 00:52:00,76.6,72.4,30.00,SSW,192,3.0,7.0,87,0.00,,,0.00,WeatherCatV1.11B39,2013-07-04 04:52:00,
2013-07-04 00:57:00,76.6,72.4,30.00,WSW,244,4.0,7.0,87,0.00,,,0.00,WeatherCatV1.11B39,2013-07-04 04:57:00,
2013-07-04 01:00:00,76.6,72.4,29.99,West,266,4.0,8.0,87,0.00,,,0.00,WeatherCatV1.11B39,2013-07-04 05:00:00,
2013-07-04 01:05:00,76.6,72.1,30.00,SW,235,0.0,4.0,86,0.00,,,0.00,WeatherCatV1.11B39,2013-07-04 05:05:00,
2013-07-04 01:10:00,76.6,72.4,30.00,WSW,247,4.0,4.0,87,0.00,,,0.00,WeatherCatV1.11B39,2013-07-04 05:10:00,
2013-07-04 01:15:00,76.4,72.2,30.00,WSW,251,0.0,1.0,87,0.00,,,0.00,WeatherCatV1.11B39,2013-07-04 05:15:00,
2013-07-04 01:20:00,76.4,72.2,29.99,SW,229,2.0,5.0,87,0.00,,,0.00,WeatherCatV1.11B39,2013-07-04 05:20:00,
2013-07-04 01:25:00,76.4,72.2,30.00,WSW,250,0.0,7.0,87,0.00,,,0.00,WeatherCatV1.11B39,2013-07-04 05:25:00,
2013-07-04 01:30:00,76.4,72.6,30.00,SW,217,4.0,7.0,88,0.00,,,0.00,WeatherCatV1.11B39,2013-07-04 05:30:00,
2013-07-04 01:35:00,76.2,72.0,29.99,WSW,251,6.0,9.0,87,0.00,,,0.00,WeatherCatV1.11B39,2013-07-04 05:35:00,
2013-07-04 01:40:00,76.2,72.0,30.00,WNW,284,6.0,8.0,87,0.00,,,0.00,WeatherCatV1.11B39,2013-07-04 05:40:00,
2013-07-04 01:45:00,76.2,72.0,30.00,West,260,3.0,8.0,87,0.00,,,0.00,WeatherCatV1.11B39,2013-07-04 05:45:00,
2013-07-04 01:50:00,76.1,72.3,29.99,WSW,248,5.0,6.0,88,0.00,,,0.00,WeatherCatV1.11B39,2013-07-04 05:50:00,
2013-07-04 01:55:00,76.0,72.2,30.00,WSW,247,7.0,11.0,88,0.00,,,0.00,WeatherCatV1.11B39,2013-07-04 05:55:00,
2013-07-04 02:00:00,76.1,72.3,30.00,WSW,238,5.0,7.0,88,0.00,,,0.00,WeatherCatV1.11B39,2013-07-04 06:00:00,
2013-07-04 02:05:00,76.1,72.3,30.00,WSW,252,4.0,6.0,88,0.00,,,0.00,WeatherCatV1.11B39,2013-07-04 06:05:00,
2013-07-04 02:10:00,76.0,72.2,29.99,WSW,251,7.0,9.0,88,0.00,,,0.00,WeatherCatV1.11B39,2013-07-04 06:10:00,
2013-07-04 02:15:00,75.9,72.1,30.00,WSW,251,6.0,9.0,88,0.00,,,0.00,WeatherCatV1.11B39,2013-07-04 06:15:00,
2013-07-04 02:20:00,75.9,72.1,30.00,WSW,249,3.0,7.0,88,0.00,,,0.00,WeatherCatV1.11B39,2013-07-04 06:20:00,
2013-07-04 02:25:00,75.9,72.1,29.99,WSW,252,3.0,6.0,88,0.00,,,0.00,WeatherCatV1.11B39,2013-07-04 06:25:00,
2013-07-04 02:30:00,75.9,72.1,29.99,West,265,4.0,5.0,88,0.00,,,0.00,WeatherCatV1.11B39,2013-07-04 06:30:00,
2013-07-04 02:35:00,75.9,72.1,30.00,SW,225,2.0,8.0,88,0.00,,,0.00,WeatherCatV1.11B39,2013-07-04 06:35:00,
2013-07-04 02:40:00,75.9,72.1,29.99,West,277,3.0,7.0,88,0.00,,,0.00,WeatherCatV1.11B39,2013-07-04 06:40:00,
2013-07-04 02:45:00,75.9,72.1,29.99,WSW,249,5.0,8.0,88,0.00,,,0.00,WeatherCatV1.11B39,2013-07-04 06:45:00,
2013-07-04 02:50:00,75.7,71.9,29.99,West,273,5.0,6.0,88,0.00,,,0.00,WeatherCatV1.11B39,2013-07-04 06:50:00,
2013-07-04 02:55:00,75.7,71.9,29.99,WSW,250,0.0,0.0,88,0.00,,,0.00,WeatherCatV1.11B39,2013-07-04 06:55:00,
2013-07-04 03:00:00,75.7,71.9,29.99,WSW,248,0.0,2.0,88,0.00,,,0.00,WeatherCatV1.11B39,2013-07-04 07:00:00,
2013-07-04 03:05:00,75.7,71.9,29.99,SW,236,2.0,5.0,88,0.00,,,0.00,WeatherCatV1.11B39,2013-07-04 07:05:00,
2013-07-04 03:10:00,75.7,71.9,29.98,WNW,289,6.0,6.0,88,0.00,,,0.00,WeatherCatV1.11B39,2013-07-04 07:10:00,
2013-07-04 03:15:00,75.7,71.9,29.98,WSW,257,0.0,4.0,88,0.00,,,0.00,WeatherCatV1.11B39,2013-07-04 07:15:00,
2013-07-04 03:20:00,75.7,71.9,29.99,WSW,249,0.0,5.0,88,0.00,,,0.00,WeatherCatV1.11B39,2013-07-04 07:20:00,
2013-07-04 03:25:00,75.7,71.9,29.99,WSW,249,7.0,7.0,88,0.00,,,0.00,WeatherCatV1.11B39,2013-07-04 07:25:00,
2013-07-04 03:30:00,75.5,71.7,29.99,WSW,256,3.0,6.0,88,0.00,,,0.00,WeatherCatV1.11B39,2013-07-04 07:30:00,
2013-07-04 03:35:00,75.5,71.7,29.99,West,271,5.0,5.0,88,0.00,,,0.00,WeatherCatV1.11B39,2013-07-04 07:35:00,
2013-07-04 03:40:00,75.5,71.7,29.99,West,267,2.0,4.0,88,0.00,,,0.00,WeatherCatV1.11B39,2013-07-04 07:40:00,
2013-07-04 03:45:00,75.5,72.0,29.99,West,266,0.0,5.0,89,0.00,,,0.00,WeatherCatV1.11B39,2013-07-04 07:45:00,
2013-07-04 03:50:00,75.3,71.8,29.99,WSW,256,0.0,0.0,89,0.00,,,0.00,WeatherCatV1.11B39,2013-07-04 07:50:00,
2013-07-04 03:55:00,75.3,71.8,29.99,WSW,253,4.0,5.0,89,0.00,,,0.00,WeatherCatV1.11B39,2013-07-04 07:55:00,
2013-07-04 04:00:00,75.3,72.2,29.99,WSW,252,3.0,4.0,90,0.00,,,0.00,WeatherCatV1.11B39,2013-07-04 08:00:00,
2013-07-04 04:05:00,75.2,71.7,30.00,WSW,252,2.0,4.0,89,0.00,,,0.00,WeatherCatV1.11B39,2013-07-04 08:05:00,
2013-07-04 04:10:00,75.1,72.0,29.99,WSW,250,0.0,0.0,90,0.00,,,0.00,WeatherCatV1.11B39,2013-07-04 08:10:00,
2013-07-04 04:15:00,75.1,72.0,30.00,West,270,0.0,4.0,90,0.00,,,0.00,WeatherCatV1.11B39,2013-07-04 08:15:00,
2013-07-04 04:20:00,75.1,72.0,29.99,West,269,0.0,1.0,90,0.00,,,0.00,WeatherCatV1.11B39,2013-07-04 08:20:00,
2013-07-04 04:25:00,75.2,72.1,30.00,WSW,254,4.0,6.0,90,0.00,,,0.00,WeatherCatV1.11B39,2013-07-04 08:25:00,
2013-07-04 04:30:00,75.2,72.1,30.00,WSW,250,3.0,5.0,90,0.00,,,0.00,WeatherCatV1.11B39,2013-07-04 08:30:00,
2013-07-04 04:35:00,75.2,72.1,29.99,West,260,5.0,6.0,90,0.00,,,0.00,WeatherCatV1.11B39,2013-07-04 08:35:00,
2013-07-04 04:40:00,75.1,72.0,30.00,WNW,291,5.0,6.0,90,0.00,,,0.00,WeatherCatV1.11B39,2013-07-04 08:40:00,
2013-07-04 04:45:00,75.0,71.9,30.00,WNW,294,0.0,0.0,90,0.00,,,0.00,WeatherCatV1.11B39,2013-07-04 08:45:00,
2013-07-04 04:50:00,75.0,71.9,30.00,WNW,292,3.0,3.0,90,0.00,,,0.00,WeatherCatV1.11B39,2013-07-04 08:50:00,
2013-07-04 04:55:00,75.0,71.9,30.00,WNW,289,0.0,0.0,90,0.00,,,0.00,WeatherCatV1.11B39,2013-07-04 08:55:00,
2013-07-04 05:00:00,75.0,71.9,30.00,WNW,284,0.0,0.0,90,0.00,,,0.00,WeatherCatV1.11B39,2013-07-04 09:00:00,
2013-07-04 05:05:00,74.8,71.7,30.00,WNW,284,0.0,0.0,90,0.00,,,0.00,WeatherCatV1.11B39,2013-07-04 09:05:00,
2013-07-04 05:10:00,74.6,71.5,30.00,West,278,0.0,0.0,90,0.00,,,0.00,WeatherCatV1.11B39,2013-07-04 09:10:00,
2013-07-04 05:15:00,74.6,71.5,30.00,WSW,255,3.0,4.0,90,0.00,,,0.00,WeatherCatV1.11B39,2013-07-04 09:15:00,
2013-07-04 05:20:00,74.6,71.8,30.00,WSW,253,0.0,2.0,91,0.00,,,0.00,WeatherCatV1.11B39,2013-07-04 09:20:00,
2013-07-04 05:25:00,74.5,71.7,30.00,WSW,253,0.0,0.0,91,0.00,,,0.00,WeatherCatV1.11B39,2013-07-04 09:25:00,
2013-07-04 05:30:00,74.4,71.9,30.00,WSW,253,0.0,0.0,92,0.00,,,0.00,WeatherCatV1.11B39,2013-07-04 09:30:00,
2013-07-04 05:35:00,74.5,71.7,30.00,West,259,0.0,0.0,91,0.00,,,0.00,WeatherCatV1.11B39,2013-07-04 09:35:00,
2013-07-04 05:40:00,74.4,71.6,30.00,West,259,0.0,0.0,91,0.00,,,0.00,WeatherCatV1.11B39,2013-07-04 09:40:00,
2013-07-04 05:45:00,74.3,71.8,30.00,West,259,0.0,0.0,92,0.00,,,0.00,WeatherCatV1.11B39,2013-07-04 09:45:00,
2013-07-04 05:50:00,74.3,71.8,30.01,West,259,0.0,0.0,92,0.00,,,0.00,WeatherCatV1.11B39,2013-07-04 09:50:00,
2013-07-04 05:55:00,74.3,71.8,30.00,West,259,0.0,0.0,92,0.00,,,0.00,WeatherCatV1.11B39,2013-07-04 09:55:00,
2013-07-04 06:00:00,74.3,71.8,30.00,West,259,0.0,0.0,92,0.00,,,0.00,WeatherCatV1.11B39,2013-07-04 10:00:00,
2013-07-04 06:05:00,74.3,71.8,30.00,West,259,0.0,0.0,92,0.00,,,0.00,WeatherCatV1.11B39,2013-07-04 10:05:00,
2013-07-04 06:10:00,74.3,71.8,30.01,West,259,0.0,0.0,92,0.00,,,0.00,WeatherCatV1.11B39,2013-07-04 10:10:00,
2013-07-04 06:15:00,74.4,71.9,30.01,West,260,0.0,0.0,92,0.00,,,0.00,WeatherCatV1.11B39,2013-07-04 10:15:00,
2013-07-04 06:20:00,74.4,71.9,30.01,West,259,2.0,5.0,92,0.00,,,0.00,WeatherCatV1.11B39,2013-07-04 10:20:00,
2013-07-04 06:25:00,74.6,72.1,30.01,West,259,0.0,0.0,92,0.00,,,0.00,WeatherCatV1.11B39,2013-07-04 10:25:00,
2013-07-04 06:30:00,74.8,72.3,30.01,West,259,0.0,0.0,92,0.00,,,0.00,WeatherCatV1.11B39,2013-07-04 10:30:00,
2013-07-04 06:35:00,74.8,72.0,30.01,WNW,290,0.0,1.0,91,0.00,,,0.00,WeatherCatV1.11B39,2013-07-04 10:35:00,
2013-07-04 06:40:00,75.0,72.2,30.01,WSW,255,4.0,5.0,91,0.00,,,0.00,WeatherCatV1.11B39,2013-07-04 10:40:00,
2013-07-04 06:45:00,75.2,72.4,30.01,WSW,251,0.0,0.0,91,0.00,,,0.00,WeatherCatV1.11B39,2013-07-04 10:45:00,
2013-07-04 06:50:00,75.3,72.5,30.01,WSW,249,3.0,4.0,91,0.00,,,0.00,WeatherCatV1.11B39,2013-07-04 10:50:00,
2013-07-04 06:55:00,75.5,72.4,30.01,WSW,249,1.0,5.0,90,0.00,,,0.00,WeatherCatV1.11B39,2013-07-04 10:55:00,
2013-07-04 07:00:00,75.7,72.2,30.01,West,268,4.0,5.0,89,0.00,,,0.00,WeatherCatV1.11B39,2013-07-04 11:00:00,
2013-07-04 07:05:00,75.9,72.7,30.02,WSW,251,2.0,6.0,90,0.00,,,0.00,WeatherCatV1.11B39,2013-07-04 11:05:00,
2013-07-04 07:10:00,76.1,72.6,30.01,West,270,0.0,5.0,89,0.00,,,0.00,WeatherCatV1.11B39,2013-07-04 11:10:00,
2013-07-04 07:15:00,76.1,71.9,30.02,WNW,289,4.0,5.0,87,0.00,,,0.00,WeatherCatV1.11B39,2013-07-04 11:15:00,
2013-07-04 07:20:00,76.2,72.0,30.02,West,272,4.0,4.0,87,0.00,,,0.00,WeatherCatV1.11B39,2013-07-04 11:20:00,
2013-07-04 07:25:00,76.4,72.6,30.01,West,265,0.0,1.0,88,0.00,,,0.00,WeatherCatV1.11B39,2013-07-04 11:25:00,
2013-07-04 07:30:00,76.6,72.1,30.02,WSW,247,3.0,8.0,86,0.00,,,0.00,WeatherCatV1.11B39,2013-07-04 11:30:00,
2013-07-04 07:35:00,76.7,71.8,30.02,WNW,288,4.0,8.0,85,0.00,,,0.00,WeatherCatV1.11B39,2013-07-04 11:35:00,
2013-07-04 07:40:00,76.9,72.0,30.01,WNW,285,8.0,8.0,85,0.00,,,0.00,WeatherCatV1.11B39,2013-07-04 11:40:00,
2013-07-04 07:45:00,77.1,71.9,30.02,WSW,247,7.0,10.0,84,0.00,,,0.00,WeatherCatV1.11B39,2013-07-04 11:45:00,
2013-07-04 07:50:00,77.3,72.1,30.02,WSW,251,4.0,9.0,84,0.00,,,0.00,WeatherCatV1.11B39,2013-07-04 11:50:00,
2013-07-04 07:55:00,77.5,72.3,30.02,WSW,252,6.0,7.0,84,0.00,,,0.00,WeatherCatV1.11B39,2013-07-04 11:55:00,
2013-07-04 08:00:00,77.7,72.5,30.02,WSW,249,4.0,7.0,84,0.00,,,0.00,WeatherCatV1.11B39,2013-07-04 12:00:00,
2013-07-04 08:05:00,77.8,72.2,30.02,West,262,4.0,11.0,83,0.00,,,0.00,WeatherCatV1.11B39,2013-07-04 12:05:00,
2013-07-04 08:10:00,78.0,72.0,30.02,West,271,1.0,7.0,82,0.00,,,0.00,WeatherCatV1.11B39,2013-07-04 12:10:00,
2013-07-04 08:15:00,78.2,72.2,30.02,West,262,7.0,9.0,82,0.00,,,0.00,WeatherCatV1.11B39,2013-07-04 12:15:00,
2013-07-04 08:20:00,78.4,72.4,30.02,WSW,252,10.0,10.0,82,0.00,,,0.00,WeatherCatV1.11B39,2013-07-04 12:20:00,
2013-07-04 08:25:00,78.7,72.4,30.01,West,279,5.0,10.0,81,0.00,,,0.00,WeatherCatV1.11B39,2013-07-04 12:25:00,
2013-07-04 08:30:00,78.9,72.6,30.02,WSW,250,7.0,8.0,81,0.00,,,0.00,WeatherCatV1.11B39,2013-07-04 12:30:00,
2013-07-04 08:35:00,79.1,72.0,30.02,WSW,251,4.0,10.0,79,0.00,,,0.00,WeatherCatV1.11B39,2013-07-04 12:35:00,
2013-07-04 08:40:00,79.3,71.8,30.02,WSW,252,6.0,7.0,78,0.00,,,0.00,WeatherCatV1.11B39,2013-07-04 12:40:00,
2013-07-04 08:45:00,79.6,72.1,30.02,WNW,291,5.0,6.0,78,0.00,,,0.00,WeatherCatV1.11B39,2013-07-04 12:45:00,
2013-07-04 08:50:00,79.8,71.9,30.02,WSW,255,7.0,10.0,77,0.00,,,0.00,WeatherCatV1.11B39,2013-07-04 12:50:00,
2013-07-04 08:55:00,80.0,71.7,30.02,WSW,254,7.0,8.0,76,0.00,,,0.00,WeatherCatV1.11B39,2013-07-04 12:55:00,
2013-07-04 09:00:00,80.2,71.9,30.02,WSW,257,3.0,7.0,76,0.00,,,0.00,WeatherCatV1.11B39,2013-07-04 13:00:00,
2013-07-04 09:05:00,80.4,72.1,30.02,WNW,289,7.0,7.0,76,0.00,,,0.00,WeatherCatV1.11B39,2013-07-04 13:05:00,
2013-07-04 09:10:00,80.8,72.1,30.02,WSW,257,0.0,9.0,75,0.00,,,0.00,WeatherCatV1.11B39,2013-07-04 13:10:00,
2013-07-04 09:15:00,81.0,71.9,30.02,West,271,0.0,9.0,74,0.00,,,0.00,WeatherCatV1.11B39,2013-07-04 13:15:00,
2013-07-04 09:20:00,81.2,71.7,30.02,WNW,287,5.0,9.0,73,0.00,,,0.00,WeatherCatV1.11B39,2013-07-04 13:20:00,
2013-07-04 09:25:00,81.3,71.0,30.02,WSW,249,4.0,9.0,71,0.00,,,0.00,WeatherCatV1.11B39,2013-07-04 13:25:00,
2013-07-04 09:31:00,81.5,71.6,30.01,WSW,250,6.0,7.0,72,0.00,,,0.00,WeatherCatV1.11B39,2013-07-04 13:31:00,
2013-07-04 09:36:00,81.7,71.8,30.02,WNW,289,5.0,8.0,72,0.00,,,0.00,WeatherCatV1.11B39,2013-07-04 13:36:00,
2013-07-04 09:41:00,81.7,70.9,30.01,WNW,286,5.0,6.0,70,0.00,,,0.00,WeatherCatV1.11B39,2013-07-04 13:41:00,
2013-07-04 09:46:00,82.1,72.2,30.01,WSW,246,5.0,8.0,72,0.00,,,0.00,WeatherCatV1.11B39,2013-07-04 13:46:00,
2013-07-04 09:51:00,82.5,72.1,30.01,NW,305,9.0,12.0,71,0.00,,,0.00,WeatherCatV1.11B39,2013-07-04 13:51:00,
2013-07-04 09:56:00,82.5,71.3,30.01,WSW,242,6.0,7.0,69,0.00,,,0.00,WeatherCatV1.11B39,2013-07-04 13:56:00,
2013-07-04 10:01:00,82.5,70.8,30.01,WSW,253,5.0,7.0,68,0.00,,,0.00,WeatherCatV1.11B39,2013-07-04 14:01:00,
2013-07-04 10:06:00,82.7,71.0,30.01,WNW,292,2.0,7.0,68,0.00,,,0.00,WeatherCatV1.11B39,2013-07-04 14:06:00,
2013-07-04 10:11:00,82.9,71.7,30.01,WSW,252,5.0,8.0,69,0.00,,,0.00,WeatherCatV1.11B39,2013-07-04 14:11:00,
2013-07-04 10:16:00,83.1,71.4,30.01,WNW,291,0.0,4.0,68,0.00,,,0.00,WeatherCatV1.11B39,2013-07-04 14:16:00,
2013-07-04 10:21:00,83.3,72.0,30.01,WNW,287,0.0,1.0,69,0.00,,,0.00,WeatherCatV1.11B39,2013-07-04 14:21:00,
2013-07-04 10:26:00,83.4,71.7,30.01,WSW,250,7.0,7.0,68,0.00,,,0.00,WeatherCatV1.11B39,2013-07-04 14:26:00,
2013-07-04 10:31:00,83.6,71.9,30.00,WSW,256,4.0,6.0,68,0.00,,,0.00,WeatherCatV1.11B39,2013-07-04 14:31:00,
2013-07-04 10:36:00,83.8,72.1,30.00,WNW,284,4.0,5.0,68,0.00,,,0.00,WeatherCatV1.11B39,2013-07-04 14:36:00,
2013-07-04 10:41:00,84.0,71.8,30.00,NW,304,0.0,0.0,67,0.00,,,0.00,WeatherCatV1.11B39,2013-07-04 14:41:00,
2013-07-04 10:46:00,84.2,72.0,30.01,WSW,239,2.0,6.0,67,0.00,,,0.00,WeatherCatV1.11B39,2013-07-04 14:46:00,
2013-07-04 10:51:00,84.4,72.2,30.00,WNW,292,0.0,0.0,67,0.00,,,0.00,WeatherCatV1.11B39,2013-07-04 14:51:00,
2013-07-04 10:56:00,84.6,72.0,30.01,SW,226,4.0,6.0,66,0.00,,,0.00,WeatherCatV1.11B39,2013-07-04 14:56:00,
2013-07-04 11:01:00,84.6,72.8,30.00,West,277,0.0,8.0,68,0.00,,,0.00,WeatherCatV1.11B39,2013-07-04 15:01:00,
2013-07-04 11:06:00,84.8,71.7,30.00,WNW,290,0.0,0.0,65,0.00,,,0.00,WeatherCatV1.11B39,2013-07-04 15:06:00,
2013-07-04 11:11:00,84.8,72.1,30.00,WNW,289,2.0,5.0,66,0.00,,,0.00,WeatherCatV1.11B39,2013-07-04 15:11:00,
2013-07-04 11:16:00,85.0,72.3,30.00,WNW,286,3.0,7.0,66,0.00,,,0.00,WeatherCatV1.11B39,2013-07-04 15:16:00,
2013-07-04 11:21:00,85.0,71.4,30.00,WSW,251,0.0,7.0,64,0.00,,,0.00,WeatherCatV1.11B39,2013-07-04 15:21:00,
2013-07-04 11:26:00,85.2,71.2,30.00,WSW,245,3.0,4.0,63,0.00,,,0.00,WeatherCatV1.11B39,2013-07-04 15:26:00,
2013-07-04 11:31:00,85.0,71.4,30.00,WSW,241,0.0,6.0,64,0.00,,,0.00,WeatherCatV1.11B39,2013-07-04 15:31:00,
2013-07-04 11:36:00,85.2,71.6,30.00,WNW,285,3.0,9.0,64,0.00,,,0.00,WeatherCatV1.11B39,2013-07-04 15:36:00,
2013-07-04 11:41:00,85.2,72.1,30.00,West,279,0.0,0.0,65,0.00,,,0.00,WeatherCatV1.11B39,2013-07-04 15:41:00,
2013-07-04 11:46:00,85.4,72.7,30.00,WSW,249,3.0,8.0,66,0.00,,,0.00,WeatherCatV1.11B39,2013-07-04 15:46:00,
2013-07-04 11:51:00,85.8,72.2,29.99,WNW,292,4.0,5.0,64,0.00,,,0.00,WeatherCatV1.11B39,2013-07-04 15:51:00,
2013-07-04 11:56:00,85.8,72.2,29.99,WSW,250,6.0,8.0,64,0.00,,,0.00,WeatherCatV1.11B39,2013-07-04 15:56:00,
2013-07-04 12:01:00,85.8,71.2,29.99,WNW,295,0.0,6.0,62,0.00,,,0.00,WeatherCatV1.11B39,2013-07-04 16:01:00,
2013-07-04 12:06:00,85.8,71.2,29.99,NW,308,7.0,9.0,62,0.00,,,0.00,WeatherCatV1.11B39,2013-07-04 16:06:00,
2013-07-04 12:11:00,85.8,72.2,29.99,WSW,244,3.0,9.0,64,0.00,,,0.00,WeatherCatV1.11B39,2013-07-04 16:11:00,
2013-07-04 12:16:00,85.8,71.2,29.99,WSW,246,1.0,7.0,62,0.00,,,0.00,WeatherCatV1.11B39,2013-07-04 16:16:00,
2013-07-04 12:21:00,85.8,71.2,29.98,WSW,255,4.0,9.0,62,0.00,,,0.00,WeatherCatV1.11B39,2013-07-04 16:21:00,
2013-07-04 12:26:00,86.0,71.9,29.98,WNW,295,0.0,5.0,63,0.00,,,0.00,WeatherCatV1.11B39,2013-07-04 16:26:00,
2013-07-04 12:31:00,86.4,71.8,29.98,West,280,3.0,7.0,62,0.00,,,0.00,WeatherCatV1.11B39,2013-07-04 16:31:00,
2013-07-04 12:36:00,86.5,71.4,29.98,WSW,246,6.0,6.0,61,0.00,,,0.00,WeatherCatV1.11B39,2013-07-04 16:36:00,
2013-07-04 12:41:00,86.2,71.1,29.97,WSW,256,9.0,9.0,61,0.00,,,0.00,WeatherCatV1.11B39,2013-07-04 16:41:00,
2013-07-04 12:46:00,86.2,71.6,29.97,West,259,0.0,0.0,62,0.00,,,0.00,WeatherCatV1.11B39,2013-07-04 16:46:00,
2013-07-04 12:51:00,86.5,71.4,29.97,SW,220,5.0,9.0,61,0.00,,,0.00,WeatherCatV1.11B39,2013-07-04 16:51:00,
2013-07-04 12:56:00,86.7,72.1,29.97,WNW,287,5.0,7.0,62,0.00,,,0.00,WeatherCatV1.11B39,2013-07-04 16:56:00,
2013-07-04 13:01:00,86.6,71.0,29.98,WNW,282,0.0,8.0,60,0.00,,,0.00,WeatherCatV1.11B39,2013-07-04 17:01:00,
2013-07-04 13:06:00,86.6,71.5,29.97,West,272,0.0,0.0,61,0.00,,,0.00,WeatherCatV1.11B39,2013-07-04 17:06:00,
2013-07-04 13:11:00,86.9,71.3,29.97,WSW,250,6.0,6.0,60,0.00,,,0.00,WeatherCatV1.11B39,2013-07-04 17:11:00,
2013-07-04 13:16:00,87.1,72.0,29.97,WSW,250,7.0,7.0,61,0.00,,,0.00,WeatherCatV1.11B39,2013-07-04 17:16:00,
2013-07-04 13:21:00,86.9,70.8,29.97,WNW,300,9.0,9.0,59,0.00,,,0.00,WeatherCatV1.11B39,2013-07-04 17:21:00,
2013-07-04 13:26:00,86.9,70.8,29.96,WNW,297,7.0,9.0,59,0.00,,,0.00,WeatherCatV1.11B39,2013-07-04 17:26:00,
2013-07-04 13:31:00,86.8,70.2,29.96,West,266,0.0,5.0,58,0.00,,,0.00,WeatherCatV1.11B39,2013-07-04 17:31:00,
2013-07-04 13:36:00,87.1,72.5,29.96,WSW,254,7.0,7.0,62,0.00,,,0.00,WeatherCatV1.11B39,2013-07-04 17:36:00,
2013-07-04 13:41:00,86.9,70.3,29.96,WNW,294,6.0,9.0,58,0.00,,,0.00,WeatherCatV1.11B39,2013-07-04 17:41:00,
2013-07-04 13:46:00,86.7,70.1,29.96,WNW,288,1.0,9.0,58,0.00,,,0.00,WeatherCatV1.11B39,2013-07-04 17:46:00,
2013-07-04 13:51:00,86.5,70.9,29.96,WSW,252,3.0,10.0,60,0.00,,,0.00,WeatherCatV1.11B39,2013-07-04 17:51:00,
2013-07-04 13:56:00,86.6,70.5,29.96,WSW,245,4.0,9.0,59,0.00,,,0.00,WeatherCatV1.11B39,2013-07-04 17:56:00,
2013-07-04 14:01:00,86.9,70.3,29.96,West,260,4.0,7.0,58,0.00,,,0.00,WeatherCatV1.11B39,2013-07-04 18:01:00,
2013-07-04 14:06:00,86.9,70.3,29.95,WSW,254,0.0,10.0,58,0.00,,,0.00,WeatherCatV1.11B39,2013-07-04 18:06:00,
2013-07-04 14:11:00,87.3,71.2,29.95,WSW,251,10.0,11.0,59,0.00,,,0.00,WeatherCatV1.11B39,2013-07-04 18:11:00,
2013-07-04 14:16:00,87.2,70.6,29.95,WSW,247,6.0,8.0,58,0.00,,,0.00,WeatherCatV1.11B39,2013-07-04 18:16:00,
2013-07-04 14:21:00,87.3,71.7,29.95,WSW,242,0.0,7.0,60,0.00,,,0.00,WeatherCatV1.11B39,2013-07-04 18:21:00,
2013-07-04 14:26:00,87.7,72.5,29.95,WSW,247,7.0,9.0,61,0.00,,,0.00,WeatherCatV1.11B39,2013-07-04 18:26:00,
2013-07-04 14:31:00,87.5,71.9,29.95,SW,234,4.0,8.0,60,0.00,,,0.00,WeatherCatV1.11B39,2013-07-04 18:31:00,
2013-07-04 14:36:00,87.3,72.2,29.95,West,259,3.0,10.0,61,0.00,,,0.00,WeatherCatV1.11B39,2013-07-04 18:36:00,
2013-07-04 14:41:00,87.7,73.0,29.95,SW,236,3.0,12.0,62,0.00,,,0.00,WeatherCatV1.11B39,2013-07-04 18:41:00,
2013-07-04 14:46:00,87.7,71.1,29.94,WSW,243,0.0,9.0,58,0.00,,,0.00,WeatherCatV1.11B39,2013-07-04 18:46:00,
2013-07-04 14:51:00,87.7,72.1,29.94,SW,232,0.0,7.0,60,0.00,,,0.00,WeatherCatV1.11B39,2013-07-04 18:51:00,
2013-07-04 14:56:00,87.7,72.1,29.94,WSW,251,0.0,4.0,60,0.00,,,0.00,WeatherCatV1.11B39,2013-07-04 18:56:00,
2013-07-04 15:01:00,87.7,71.1,29.94,WSW,244,0.0,9.0,58,0.00,,,0.00,WeatherCatV1.11B39,2013-07-04 19:01:00,
2013-07-04 15:06:00,87.6,71.5,29.93,WNW,285,4.0,7.0,59,0.00,,,0.00,WeatherCatV1.11B39,2013-07-04 19:06:00,
2013-07-04 15:11:00,87.9,72.2,29.94,WSW,238,9.0,10.0,60,0.00,,,0.00,WeatherCatV1.11B39,2013-07-04 19:11:00,
2013-07-04 15:16:00,87.7,71.6,29.94,WSW,255,7.0,11.0,59,0.00,,,0.00,WeatherCatV1.11B39,2013-07-04 19:16:00,
2013-07-04 15:21:00,87.5,71.9,29.94,WSW,247,5.0,7.0,60,0.00,,,0.00,WeatherCatV1.11B39,2013-07-04 19:21:00,
2013-07-04 15:26:00,87.7,72.1,29.93,WSW,249,4.0,8.0,60,0.00,,,0.00,WeatherCatV1.11B39,2013-07-04 19:26:00,
2013-07-04 15:31:00,87.5,72.4,29.93,WSW,239,4.0,9.0,61,0.00,,,0.00,WeatherCatV1.11B39,2013-07-04 19:31:00,
2013-07-04 15:36:00,87.7,72.1,29.94,WSW,256,9.0,11.0,60,0.00,,,0.00,WeatherCatV1.11B39,2013-07-04 19:36:00,
2013-07-04 15:41:00,87.5,70.4,29.93,WSW,248,5.0,10.0,57,0.00,,,0.00,WeatherCatV1.11B39,2013-07-04 19:41:00,
2013-07-04 15:46:00,87.7,71.6,29.93,West,268,5.0,7.0,59,0.00,,,0.00,WeatherCatV1.11B39,2013-07-04 19:46:00,
2013-07-04 15:51:00,87.5,70.9,29.93,WSW,252,8.0,12.0,58,0.00,,,0.00,WeatherCatV1.11B39,2013-07-04 19:51:00,
2013-07-04 15:56:00,87.5,71.9,29.93,WSW,250,7.0,8.0,60,0.00,,,0.00,WeatherCatV1.11B39,2013-07-04 19:56:00,
2013-07-04 16:01:00,87.7,71.6,29.93,WSW,258,5.0,8.0,59,0.00,,,0.00,WeatherCatV1.11B39,2013-07-04 20:01:00,
2013-07-04 16:06:00,87.7,72.5,29.93,WSW,251,10.0,11.0,61,0.00,,,0.00,WeatherCatV1.11B39,2013-07-04 20:06:00,
2013-07-04 16:11:00,87.7,72.5,29.93,WSW,249,9.0,9.0,61,0.00,,,0.00,WeatherCatV1.11B39,2013-07-04 20:11:00,
2013-07-04 16:16:00,87.7,71.6,29.92,West,260,8.0,11.0,59,0.00,,,0.00,WeatherCatV1.11B39,2013-07-04 20:16:00,
2013-07-04 16:21:00,87.7,72.5,29.93,SW,234,3.0,11.0,61,0.00,,,0.00,WeatherCatV1.11B39,2013-07-04 20:21:00,
2013-07-04 16:26:00,87.7,72.1,29.92,WSW,253,7.0,8.0,60,0.00,,,0.00,WeatherCatV1.11B39,2013-07-04 20:26:00,
2013-07-04 16:31:00,87.5,71.4,29.92,WSW,250,6.0,7.0,59,0.00,,,0.00,WeatherCatV1.11B39,2013-07-04 20:31:00,
2013-07-04 16:36:00,87.7,71.6,29.92,WSW,238,9.0,9.0,59,0.00,,,0.00,WeatherCatV1.11B39,2013-07-04 20:36:00,
2013-07-04 16:41:00,87.7,71.6,29.92,SW,229,4.0,10.0,59,0.00,,,0.00,WeatherCatV1.11B39,2013-07-04 20:41:00,
2013-07-04 16:46:00,87.7,72.5,29.92,WSW,242,3.0,11.0,61,0.00,,,0.00,WeatherCatV1.11B39,2013-07-04 20:46:00,
2013-07-04 16:51:00,87.7,71.6,29.92,WNW,294,4.0,7.0,59,0.00,,,0.00,WeatherCatV1.11B39,2013-07-04 20:51:00,
2013-07-04 16:56:00,87.9,71.7,29.92,SW,235,4.0,13.0,59,0.00,,,0.00,WeatherCatV1.11B39,2013-07-04 20:56:00,
2013-07-04 17:01:00,87.9,72.7,29.91,West,261,6.0,6.0,61,0.00,,,0.00,WeatherCatV1.11B39,2013-07-04 21:01:00,
2013-07-04 17:06:00,87.7,73.5,29.91,WSW,244,4.0,7.0,63,0.00,,,0.00,WeatherCatV1.11B39,2013-07-04 21:06:00,
2013-07-04 17:11:00,87.5,72.8,29.92,WSW,243,4.0,5.0,62,0.00,,,0.00,WeatherCatV1.11B39,2013-07-04 21:11:00,
2013-07-04 17:16:00,87.5,72.4,29.92,WSW,245,5.0,9.0,61,0.00,,,0.00,WeatherCatV1.11B39,2013-07-04 21:16:00,
2013-07-04 17:21:00,87.5,72.4,29.92,WSW,251,9.0,10.0,61,0.00,,,0.00,WeatherCatV1.11B39,2013-07-04 21:21:00,
2013-07-04 17:26:00,87.3,72.7,29.91,WSW,252,6.0,7.0,62,0.00,,,0.00,WeatherCatV1.11B39,2013-07-04 21:26:00,
2013-07-04 17:31:00,87.3,71.7,29.91,WSW,248,4.0,9.0,60,0.00,,,0.00,WeatherCatV1.11B39,2013-07-04 21:31:00,
2013-07-04 17:36:00,87.3,71.7,29.92,WSW,254,7.0,9.0,60,0.00,,,0.00,WeatherCatV1.11B39,2013-07-04 21:36:00,
2013-07-04 17:41:00,87.3,71.2,29.91,WSW,255,8.0,11.0,59,0.00,,,0.00,WeatherCatV1.11B39,2013-07-04 21:41:00,
2013-07-04 17:46:00,87.3,71.2,29.92,West,267,8.0,8.0,59,0.00,,,0.00,WeatherCatV1.11B39,2013-07-04 21:46:00,
2013-07-04 17:51:00,87.0,70.9,29.92,WSW,245,6.0,12.0,59,0.00,,,0.00,WeatherCatV1.11B39,2013-07-04 21:51:00,
2013-07-04 17:56:00,87.1,71.0,29.92,West,260,6.0,9.0,59,0.00,,,0.00,WeatherCatV1.11B39,2013-07-04 21:56:00,
2013-07-04 18:01:00,87.1,70.5,29.92,WSW,249,5.0,9.0,58,0.00,,,0.00,WeatherCatV1.11B39,2013-07-04 22:01:00,
2013-07-04 18:06:00,87.1,71.0,29.91,WSW,249,5.0,7.0,59,0.00,,,0.00,WeatherCatV1.11B39,2013-07-04 22:06:00,
2013-07-04 18:11:00,86.9,70.8,29.92,WSW,247,5.0,11.0,59,0.00,,,0.00,WeatherCatV1.11B39,2013-07-04 22:11:00,
2013-07-04 18:16:00,86.9,70.8,29.91,WSW,251,6.0,11.0,59,0.00,,,0.00,WeatherCatV1.11B39,2013-07-04 22:16:00,
2013-07-04 18:21:00,86.9,71.3,29.91,WSW,251,6.0,9.0,60,0.00,,,0.00,WeatherCatV1.11B39,2013-07-04 22:21:00,
2013-07-04 18:26:00,86.9,72.3,29.92,WSW,254,0.0,3.0,62,0.00,,,0.00,WeatherCatV1.11B39,2013-07-04 22:26:00,
2013-07-04 18:31:00,86.6,72.0,29.91,WSW,257,6.0,12.0,62,0.00,,,0.00,WeatherCatV1.11B39,2013-07-04 22:31:00,
2013-07-04 18:36:00,86.4,72.7,29.91,WSW,255,8.0,11.0,64,0.00,,,0.00,WeatherCatV1.11B39,2013-07-04 22:36:00,
2013-07-04 18:41:00,86.5,72.8,29.91,WSW,254,0.0,7.0,64,0.00,,,0.00,WeatherCatV1.11B39,2013-07-04 22:41:00,
2013-07-04 18:46:00,86.2,72.1,29.91,WSW,253,5.0,7.0,63,0.00,,,0.00,WeatherCatV1.11B39,2013-07-04 22:46:00,
2013-07-04 18:51:00,86.2,72.6,29.91,WSW,244,0.0,6.0,64,0.00,,,0.00,WeatherCatV1.11B39,2013-07-04 22:51:00,
2013-07-04 18:56:00,86.0,72.8,29.92,WSW,246,5.0,12.0,65,0.00,,,0.00,WeatherCatV1.11B39,2013-07-04 22:56:00,
2013-07-04 19:01:00,85.8,72.6,29.92,WSW,245,5.0,7.0,65,0.00,,,0.00,WeatherCatV1.11B39,2013-07-04 23:01:00,
2013-07-04 19:06:00,85.8,72.6,29.91,WSW,246,7.0,8.0,65,0.00,,,0.00,WeatherCatV1.11B39,2013-07-04 23:06:00,
2013-07-04 19:11:00,85.6,72.9,29.92,WSW,253,7.0,8.0,66,0.00,,,0.00,WeatherCatV1.11B39,2013-07-04 23:11:00,
2013-07-04 19:16:00,85.6,73.4,29.92,WSW,247,5.0,6.0,67,0.00,,,0.00,WeatherCatV1.11B39,2013-07-04 23:16:00,
2013-07-04 19:21:00,85.4,73.6,29.92,West,267,0.0,6.0,68,0.00,,,0.00,WeatherCatV1.11B39,2013-07-04 23:21:00,
2013-07-04 19:26:00,85.4,73.2,29.92,WSW,248,4.0,7.0,67,0.00,,,0.00,WeatherCatV1.11B39,2013-07-04 23:26:00,
2013-07-04 19:31:00,85.2,73.0,29.92,WSW,243,4.0,7.0,67,0.00,,,0.00,WeatherCatV1.11B39,2013-07-04 23:31:00,
2013-07-04 19:36:00,85.0,73.2,29.92,WSW,243,5.0,11.0,68,0.00,,,0.00,WeatherCatV1.11B39,2013-07-04 23:36:00,
2013-07-04 19:41:00,85.0,73.7,29.92,WSW,249,3.0,7.0,69,0.00,,,0.00,WeatherCatV1.11B39,2013-07-04 23:41:00,
2013-07-04 19:46:00,84.8,73.0,29.92,WSW,240,1.0,5.0,68,0.00,,,0.00,WeatherCatV1.11B39,2013-07-04 23:46:00,
2013-07-04 19:51:00,84.6,73.3,29.92,West,270,0.0,0.0,69,0.00,,,0.00,WeatherCatV1.11B39,2013-07-04 23:51:00,
2013-07-04 19:56:00,84.4,73.1,29.93,SW,232,4.0,6.0,69,0.00,,,0.00,WeatherCatV1.11B39,2013-07-04 23:56:00,
2013-07-04 20:01:00,84.4,73.5,29.93,WSW,250,4.0,5.0,70,0.00,,,0.00,WeatherCatV1.11B39,2013-07-05 00:01:00,
2013-07-04 20:06:00,84.2,73.3,29.93,SW,226,0.0,0.0,70,0.00,,,0.00,WeatherCatV1.11B39,2013-07-05 00:06:00,
2013-07-04 20:11:00,84.0,73.6,29.93,SW,225,0.0,0.0,71,0.00,,,0.00,WeatherCatV1.11B39,2013-07-05 00:11:00,
2013-07-04 20:16:00,83.8,73.4,29.93,WSW,239,0.0,0.0,71,0.00,,,0.00,WeatherCatV1.11B39,2013-07-05 00:16:00,
2013-07-04 20:21:00,83.6,73.2,29.93,WSW,239,0.0,0.0,71,0.00,,,0.00,WeatherCatV1.11B39,2013-07-05 00:21:00,
2013-07-04 20:26:00,83.4,73.4,29.93,SW,231,0.0,0.0,72,0.00,,,0.00,WeatherCatV1.11B39,2013-07-05 00:26:00,
2013-07-04 20:31:00,83.3,72.9,29.93,West,273,0.0,0.0,71,0.00,,,0.00,WeatherCatV1.11B39,2013-07-05 00:31:00,
2013-07-04 20:36:00,83.2,72.8,29.94,West,265,0.0,0.0,71,0.00,,,0.00,WeatherCatV1.11B39,2013-07-05 00:36:00,
2013-07-04 20:41:00,83.1,72.7,29.93,WSW,240,0.0,0.0,71,0.00,,,0.00,WeatherCatV1.11B39,2013-07-05 00:41:00,
2013-07-04 20:46:00,83.1,72.7,29.93,WSW,240,0.0,0.0,71,0.00,,,0.00,WeatherCatV1.11B39,2013-07-05 00:46:00,
2013-07-04 20:51:00,82.9,72.5,29.93,WSW,240,0.0,0.0,71,0.00,,,0.00,WeatherCatV1.11B39,2013-07-05 00:51:00,
2013-07-04 20:56:00,82.8,72.4,29.94,WSW,240,0.0,0.0,71,0.00,,,0.00,WeatherCatV1.11B39,2013-07-05 00:56:00,
2013-07-04 21:01:00,82.7,72.3,29.93,WSW,240,0.0,0.0,71,0.00,,,0.00,WeatherCatV1.11B39,2013-07-05 01:01:00,
2013-07-04 21:06:00,82.3,71.9,29.93,WSW,240,0.0,0.0,71,0.00,,,0.00,WeatherCatV1.11B39,2013-07-05 01:06:00,
2013-07-04 21:11:00,82.1,72.2,29.94,SW,228,0.0,5.0,72,0.00,,,0.00,WeatherCatV1.11B39,2013-07-05 01:11:00,
2013-07-04 21:16:00,81.9,72.0,29.94,SW,229,0.0,0.0,72,0.00,,,0.00,WeatherCatV1.11B39,2013-07-05 01:16:00,
2013-07-04 21:21:00,81.9,72.0,29.94,SW,228,0.0,0.0,72,0.00,,,0.00,WeatherCatV1.11B39,2013-07-05 01:21:00,
2013-07-04 21:26:00,81.7,71.8,29.94,WSW,258,0.0,0.0,72,0.00,,,0.00,WeatherCatV1.11B39,2013-07-05 01:26:00,
2013-07-04 21:31:00,81.7,72.2,29.94,WSW,256,3.0,3.0,73,0.00,,,0.00,WeatherCatV1.11B39,2013-07-05 01:31:00,
2013-07-04 21:36:00,81.7,72.2,29.95,WSW,242,0.0,0.0,73,0.00,,,0.00,WeatherCatV1.11B39,2013-07-05 01:36:00,
2013-07-04 21:41:00,81.5,72.0,29.95,WSW,252,0.0,5.0,73,0.00,,,0.00,WeatherCatV1.11B39,2013-07-05 01:41:00,
2013-07-04 21:46:00,81.3,71.8,29.95,WSW,240,0.0,0.0,73,0.00,,,0.00,WeatherCatV1.11B39,2013-07-05 01:46:00,
2013-07-04 21:51:00,81.4,72.3,29.95,WSW,244,0.0,0.0,74,0.00,,,0.00,WeatherCatV1.11B39,2013-07-05 01:51:00,
2013-07-04 21:56:00,81.2,72.1,29.95,WSW,245,0.0,0.0,74,0.00,,,0.00,WeatherCatV1.11B39,2013-07-05 01:56:00,
2013-07-04 22:01:00,81.0,71.9,29.95,WSW,245,0.0,0.0,74,0.00,,,0.00,WeatherCatV1.11B39,2013-07-05 02:01:00,
2013-07-04 22:06:00,80.8,72.1,29.95,WSW,245,0.0,0.0,75,0.00,,,0.00,WeatherCatV1.11B39,2013-07-05 02:06:00,
2013-07-04 22:11:00,80.6,72.3,29.95,WSW,243,0.0,0.0,76,0.00,,,0.00,WeatherCatV1.11B39,2013-07-05 02:11:00,
2013-07-04 22:16:00,80.4,72.1,29.95,West,265,0.0,3.0,76,0.00,,,0.00,WeatherCatV1.11B39,2013-07-05 02:16:00,
2013-07-04 22:21:00,80.2,72.3,29.95,West,263,3.0,3.0,77,0.00,,,0.00,WeatherCatV1.11B39,2013-07-05 02:21:00,
2013-07-04 22:26:00,80.0,72.1,29.95,WSW,244,0.0,0.0,77,0.00,,,0.00,WeatherCatV1.11B39,2013-07-05 02:26:00,
2013-07-04 22:31:00,79.9,72.4,29.94,WSW,244,0.0,0.0,78,0.00,,,0.00,WeatherCatV1.11B39,2013-07-05 02:31:00,
2013-07-04 22:36:00,79.6,72.5,29.95,WSW,244,0.0,0.0,79,0.00,,,0.00,WeatherCatV1.11B39,2013-07-05 02:36:00,
2013-07-04 22:41:00,79.6,72.9,29.95,WSW,244,0.0,0.0,80,0.00,,,0.00,WeatherCatV1.11B39,2013-07-05 02:41:00,
2013-07-04 22:46:00,79.5,72.8,29.95,WSW,244,0.0,0.0,80,0.00,,,0.00,WeatherCatV1.11B39,2013-07-05 02:46:00,
2013-07-04 22:51:00,79.3,72.6,29.95,WSW,244,0.0,0.0,80,0.00,,,0.00,WeatherCatV1.11B39,2013-07-05 02:51:00,
2013-07-04 22:56:00,79.3,72.6,29.95,WSW,244,0.0,0.0,80,0.00,,,0.00,WeatherCatV1.11B39,2013-07-05 02:56:00,
2013-07-04 23:01:00,79.1,72.4,29.94,WSW,244,0.0,0.0,80,0.00,,,0.00,WeatherCatV1.11B39,2013-07-05 03:01:00,
2013-07-04 23:06:00,78.9,72.6,29.95,WSW,244,0.0,0.0,81,0.00,,,0.00,WeatherCatV1.11B39,2013-07-05 03:06:00,
2013-07-04 23:11:00,78.9,72.9,29.95,WSW,244,0.0,0.0,82,0.00,,,0.00,WeatherCatV1.11B39,2013-07-05 03:11:00,
2013-07-04 23:16:00,78.7,72.7,29.95,WSW,244,0.0,0.0,82,0.00,,,0.00,WeatherCatV1.11B39,2013-07-05 03:16:00,
2013-07-04 23:21:00,78.5,72.5,29.95,WSW,244,0.0,0.0,82,0.00,,,0.00,WeatherCatV1.11B39,2013-07-05 03:21:00,
2013-07-04 23:26:00,78.5,73.2,29.95,WSW,244,0.0,0.0,84,0.00,,,0.00,WeatherCatV1.11B39,2013-07-05 03:26:00,
2013-07-04 23:31:00,78.7,73.4,29.95,WSW,244,0.0,0.0,84,0.00,,,0.00,WeatherCatV1.11B39,2013-07-05 03:31:00,
2013-07-04 23:36:00,78.7,72.7,29.95,SW,233,0.0,0.0,82,0.00,,,0.00,WeatherCatV1.11B39,2013-07-05 03:36:00,
2013-07-04 23:41:00,78.7,72.7,29.95,SW,233,0.0,0.0,82,0.00,,,0.00,WeatherCatV1.11B39,2013-07-05 03:41:00,
2013-07-04 23:46:00,78.7,73.1,29.95,WSW,251,0.0,0.0,83,0.00,,,0.00,WeatherCatV1.11B39,2013-07-05 03:46:00,
2013-07-04 23:51:00,78.7,72.7,29.95,SW,230,1.0,5.0,82,0.00,,,0.00,WeatherCatV1.11B39,2013-07-05 03:51:00,
2013-07-04 23:56:00,78.7,72.7,29.95,SW,230,0.0,0.0,82,0.00,,,0.00,WeatherCatV1.11B39,2013-07-05 03:56:00,